| time (UTC) | temp F | wind direction | speed knots | gust knots | rain 1hr in | rain 24hr in | rain mn in | humidity % | barometer mb |
| 20260505024558 | 41 | 345 | 8.7 | 13.9 | 0.00 | 0.00 | 0.00 | 55 | 1013.3 |
| 20260505023058 | 42 | 345 | 8.7 | 14.8 | 0.00 | 0.00 | 0.00 | 58 | 1012.9 |
| 20260505021554 | 42 | 77 | 9.6 | 15.6 | 0.00 | 0.00 | 0.00 | 60 | 1012.6 |
| 20260505014554 | 43 | 345 | 10.4 | 16.5 | 0.00 | 0.00 | 0.00 | 60 | 1012.4 |
| 20260505013057 | 44 | 84 | 11.3 | 19.1 | 0.00 | 0.00 | 0.00 | 58 | 1012.3 |
| 20260505011551 | 44 | 345 | 10.4 | 16.5 | 0.00 | 0.00 | 0.00 | 58 | 1012.2 |
| 20260505004547 | 45 | 345 | 11.3 | 18.2 | 0.00 | 0.00 | 0.00 | 55 | 1011.9 |
| 20260505003046 | 46 | 345 | 11.3 | 22.6 | 0.00 | 0.00 | 0.00 | 53 | 1011.7 |
| 20260505001544 | 47 | 345 | 10.4 | 17.4 | 0.00 | 0.00 | 0.00 | 51 | 1011.6 |
| 20260505000046 | 47 | 29 | 9.6 | 20.0 | 0.00 | 0.00 | 0.00 | 50 | 1011.3 |
| 20260504234540 | 48 | 41 | 14.8 | 20.0 | 0.00 | 0.00 | 0.00 | 49 | 1011.0 |
| 20260504233043 | 49 | 13 | 7.8 | 20.0 | 0.00 | 0.00 | 0.00 | 45 | 1010.9 |
| 20260504231541 | 49 | 27 | 9.6 | 16.5 | 0.00 | 0.00 | 0.00 | 45 | 1010.6 |
| 20260504230044 | 48 | 19 | 13.0 | 20.0 | 0.00 | 0.00 | 0.00 | 44 | 1010.6 |
| 20260504224533 | 49 | 9 | 11.3 | 19.1 | 0.00 | 0.00 | 0.00 | 45 | 1010.4 |
| 20260504223033 | 49 | 345 | 8.7 | 20.9 | 0.00 | 0.00 | 0.00 | 45 | 1010.3 |
| 20260504221532 | 48 | 345 | 10.4 | 17.4 | 0.00 | 0.00 | 0.00 | 46 | 1010.2 |
| 20260504220032 | 49 | 345 | 10.4 | 14.8 | 0.00 | 0.00 | 0.00 | 45 | 1010.2 |
| 20260504214531 | 48 | 20 | 10.4 | 15.6 | 0.00 | 0.00 | 0.00 | 46 | 1010.2 |
| 20260504213031 | 48 | 345 | 10.4 | 14.8 | 0.00 | 0.00 | 0.00 | 49 | 1010.3 |
| 20260504211530 | 47 | 345 | 9.6 | 14.8 | 0.00 | 0.00 | 0.00 | 49 | 1010.4 |
| 20260504210035 | 47 | 345 | 9.6 | 17.4 | 0.00 | 0.00 | 0.00 | 50 | 1010.4 |
| 20260504204532 | 47 | 345 | 13.0 | 18.2 | 0.00 | 0.00 | 0.00 | 49 | 1010.4 |
| 20260504203048 | 46 | 345 | 11.3 | 18.2 | 0.00 | 0.00 | 0.00 | 53 | 1010.3 |
| 20260504201527 | 46 | 345 | 10.4 | 18.2 | 0.00 | 0.00 | 0.00 | 53 | 1010.3 |
| 20260504200026 | 46 | 345 | 12.2 | 18.2 | 0.00 | 0.00 | 0.00 | 53 | 1010.2 |
| 20260504194525 | 46 | 345 | 11.3 | 18.2 | 0.00 | 0.00 | 0.00 | 53 | 1010.1 |
| 20260504193025 | 47 | 345 | 11.3 | 18.2 | 0.00 | 0.00 | 0.00 | 53 | 1010.1 |
| 20260504191526 | 47 | 345 | 11.3 | 19.1 | 0.00 | 0.00 | 0.00 | 52 | 1010.1 |
| 20260504190025 | 48 | 43 | 13.0 | 19.1 | 0.00 | 0.00 | 0.00 | 50 | 1010.0 |
| 20260504184524 | 49 | 354 | 13.9 | 19.1 | 0.00 | 0.00 | 0.00 | 51 | 1010.0 |
| 20260504183030 | 48 | 26 | 10.4 | 19.1 | 0.00 | 0.00 | 0.00 | 49 | 1010.0 |
| 20260504181522 | 49 | 7 | 11.3 | 15.6 | 0.00 | 0.00 | 0.00 | 49 | 1010.0 |
| 20260504180022 | 48 | 345 | 11.3 | 17.4 | 0.00 | 0.00 | 0.00 | 49 | 1010.1 |
| 20260504174522 | 47 | 345 | 9.6 | 15.6 | 0.00 | 0.00 | 0.00 | 50 | 1010.1 |
| 20260504173021 | 48 | 345 | 10.4 | 17.4 | 0.00 | 0.00 | 0.00 | 50 | 1010.1 |
| 20260504171520 | 47 | 345 | 9.6 | 20.0 | 0.00 | 0.00 | 0.00 | 50 | 1010.2 |
| 20260504081516 | 46 | 345 | 13.9 | 17.4 | 0.00 | 0.00 | 0.00 | 47 | 1006.2 |
| 20260504060106 | 47 | 345 | 6.1 | 9.6 | 0.00 | 0.00 | 0.00 | 44 | 1006.6 |
| 20260504050106 | 52 | 345 | 5.2 | 9.6 | 0.00 | 0.00 | 0.00 | 37 | 1006.7 |
| 20260504044551 | 51 | 345 | 6.1 | 7.8 | 0.00 | 0.00 | 0.00 | 40 | 1006.6 |
| 20260504043056 | 50 | 345 | 7.0 | 8.7 | 0.00 | 0.00 | 0.00 | 41 | 1006.6 |
| 20260504041548 | 48 | 345 | 4.3 | 7.0 | 0.00 | 0.00 | 0.00 | 45 | 1006.5 |
| 20260504040048 | 51 | 345 | 4.3 | 7.0 | 0.00 | 0.00 | 0.00 | 41 | 1006.5 |
| 20260504034545 | 53 | 345 | 3.5 | 4.3 | 0.00 | 0.00 | 0.00 | 36 | 1006.5 |
| 20260504033054 | 53 | 345 | 4.3 | 5.2 | 0.00 | 0.00 | 0.00 | 38 | 1006.2 |
| 20260504031551 | 52 | 345 | 4.3 | 5.2 | 0.00 | 0.00 | 0.00 | 38 | 1005.9 |
| 20260504030048 | 55 | 345 | 3.5 | 5.2 | 0.00 | 0.00 | 0.00 | 34 | 1005.6 |